User: anonymous   Login
Location: Unspecified
(0.0000°N, 0.0000°E)
Time: 10:56:16
(UTC+00:00)
Language:

OBJECT AS - Orbit

View from above orbital plane
View from above orbital plane
View from above satellite
View from above satellite

Ground track
Ground track

The orbit is defined by the following mean orbital elements,

1 57044U          26145.62230451 +.00000000 +00000-0 +46244-3 0 00007
2 57044  97.4894 258.6926 0008069 154.5049 205.6594 15.35878172    00
Epoch (UTC): 25 May 2026 14:56:07
Eccentricity: 0.0008069
inclination: 97.4894°
perigee height: 453 km
apogee height: 464 km
right ascension of ascending node: 258.6926°
argument of perigee: 154.5049°
revolutions per day: 15.35878172
mean anomaly at epoch: 205.6594°

The dashed part of the orbit path shows where the satellite is in the earth's shadow,  

DLR